Location: Cheyres
(46.8153°N, 6.7877°E)
Time: 04:25:30
(UTC+00:00)

Cosmos 2242 Rocket - Pass Details

Date: 11 May 2021
Orbit: 619 x 650 km, 82.5° (Epoch: 18 June)

Event Time Altitude Azimuth Distance (km) Brightness Sun altitude
Exits shadow 23:09:02 78° 45° (NE) 647 3.6 -24.9°
Drops below altitude 10° 23:13:17 10° 11° (N) 2,023 7.2 -25.0°
Sets 23:15:32 0° 10° (N) 2,941 8.3 -25.0°
